[[{"header":{"parameterUnit":"m.s-1","parameterCategory":1,"la1":30.2991,"la2":30.254,"lo1":-89.0895,"lo2":-89.0444,"dy":0.0017,"dx":0.0017,"nx":28,"ny":28,"refTime":"2025-06-07T21:00:00:Z","depth":0,"parameterNumber":2,"parameterNumberName":"U-component_of_WINDS"},"data":[0,0,0,0,0,0,0,0,0,0,0,0,0,0,0,0,0,0,0,0,0,0,0,0,0,0,0,0,0,0,0,0,0,0,0,0,0,0,0,0,0,0,0,0,0,0,0,0,0,0,0,0,0,0,0,0,0,0,3.8564,3.8566,0,3.8668,3.867,3.8671,3.866,3.8658,3.8656,3.8655,3.8761,3.8765,3.8769,0,0,0,0,0,0,0,0,0,0,0,0,0,3.8354,3.8358,3.8564,3.8566,3.8567,3.8668,3.867,3.8671,3.866,3.8658,3.8656,3.8654,3.8759,3.8764,3.8769,0,0,0,0,0,0,0,0,0,0,0,0,0,3.845,3.8359,3.8564,3.8574,3.8576,3.8668,3.867,3.8671,3.866,3.8658,3.8656,3.8653,3.8757,3.8764,3.877,3.8859,0,0,3.879,3.8793,0,0,0,0,0,0,0,0,3.8445,3.8458,3.8571,3.8573,3.8575,3.8649,3.8634,3.8734,3.8661,3.8628,3.8655,3.8652,3.8725,3.8734,3.8759,3.8864,3.8869,3.8791,3.8795,3.8797,3.8799,0,0,0,0,0,0,0,3.8438,3.8453,3.8605,3.8573,3.8575,3.8572,3.8583,3.8653,3.8689,3.8631,3.863,3.8643,3.8726,3.8753,3.8762,3.887,3.879,3.8796,3.88,3.8803,3.9051,3.9054,0,0,0,0,0,0,3.8429,3.8448,3.8602,3.8609,3.8503,3.8578,3.859,3.8628,3.8688,3.8695,3.8645,3.8642,3.8743,3.8754,3.8765,3.8871,3.8797,3.8803,3.8807,3.9049,3.9052,3.9055,0,0,0,0,0,0,3.8425,3.8443,3.8598,3.8528,3.8548,3.8584,3.8626,3.8631,3.8658,3.8699,3.8705,3.8666,3.8741,3.8756,3.8835,3.8875,3.8806,3.8812,3.9045,3.905,3.9053,3.9086,0,0,0,0,0,0,3.8419,3.8442,3.8477,3.8529,3.8551,3.8667,3.8629,3.8635,3.8669,3.8666,3.872,3.8727,3.8741,3.8826,3.8842,3.8883,3.8817,3.9042,3.9047,3.9052,3.9081,3.9091,3.9098,0,0,0,0,0,3.8411,3.8482,3.8479,3.8497,3.8596,3.867,3.8682,3.8697,3.8672,3.8707,3.8733,3.8725,3.8868,3.8834,3.8852,3.8895,3.9039,3.9046,3.9052,3.9078,3.9089,3.9098,0,0,0,0,0,0,3.8434,3.8489,3.8486,3.8576,3.8618,3.8668,3.8712,3.8709,3.8759,3.8754,3.877,3.8782,3.8862,3.8887,3.8848,3.8984,3.895,3.896,3.8964,3.8975,3.8983,3.8975,3.8823,0,0,0,0,0,3.8449,3.8505,3.855,3.8625,3.8647,3.8676,3.8708,3.8716,3.876,3.8778,3.881,3.8853,3.8907,3.8943,3.8996,3.9085,3.9096,3.9124,3.9132,3.9139,3.9147,3.9194,3.9206,3.9075,3.9075,3.9074,0,0,3.8481,3.8519,3.8553,3.8631,3.8664,3.872,3.8691,3.8752,3.8794,3.8787,3.8864,3.8889,3.8937,3.9022,3.9061,3.9045,3.9186,3.9147,3.9152,3.9156,3.9201,3.9214,3.9225,3.9079,3.9078,3.9077,0,0,3.8568,3.8603,3.8668,3.8702,3.8753,3.8772,3.8787,3.8838,3.8854,3.8931,3.8926,3.8975,3.907,3.9104,3.9133,3.9232,3.9225,3.9248,3.9292,3.9337,3.9348,3.9357,3.939,3.9401,3.9256,3.9257,3.9257,0,3.8602,3.8687,3.8702,3.8763,3.8796,3.8793,3.8858,3.889,3.8956,3.8979,3.896,3.9077,3.911,3.9201,3.9224,3.9249,3.9266,3.9242,3.9345,3.9355,3.9363,3.9395,3.9407,3.9259,3.9259,3.9258,3.9258,0,3.8724,3.8783,3.883,3.8892,3.8931,3.8994,3.9017,3.9054,3.9058,3.9078,3.9156,3.9195,3.9254,3.9276,3.9282,3.9368,3.9356,3.9342,3.9308,3.9378,3.9407,3.942,3.9262,3.9261,3.9261,3.926,0,0,3.8828,3.8897,3.8914,3.8941,3.8997,3.9042,3.9104,3.9162,3.9192,3.9238,3.9289,3.9368,3.9354,3.9387,3.9396,3.9436,3.9508,3.9416,3.9418,3.943,3.9603,3.9612,3.9625,3.9505,3.9507,3.9509,3.9598,0,3.8919,3.9029,3.9043,3.914,3.9193,3.919,3.9244,3.9283,3.9303,3.9351,3.9373,3.9428,3.9407,3.9426,3.9466,3.9491,3.9543,3.9485,3.9551,3.9553,3.9536,3.9641,3.9652,3.9733,3.961,3.9612,3.9613,0,3.9039,3.9087,3.9189,3.9235,3.9258,3.9306,3.9359,3.9405,3.9449,3.946,3.9497,3.95,3.9563,3.9528,3.9613,3.9573,3.9601,3.9617,3.9621,3.9626,3.9586,3.9647,3.976,3.9771,3.9632,3.963,3.9629,0,3.9102,3.9192,3.9264,3.9288,3.9344,3.9377,3.9402,3.9443,3.9476,3.9523,3.9544,3.9597,3.9625,3.9666,3.9682,3.9656,3.9766,3.9733,3.9776,3.9775,3.9798,3.9796,3.9914,3.9819,3.9819,3.9819,3.9818,0,3.92,3.9262,3.9292,3.9336,3.9405,3.942,3.9488,3.9511,3.9548,3.9595,3.9596,3.9641,3.9661,3.9708,3.9722,3.9789,3.9802,3.9812,3.9815,3.9811,3.9809,3.9828,3.9822,3.9822,3.9821,3.9821,3.982,0,3.9281,3.9304,3.9382,3.9428,3.9441,3.9489,3.9529,3.9571,3.959,3.965,3.9665,3.9695,3.9751,3.9772,3.984,3.9849,3.9925,3.9924,3.991,3.991,3.9951,3.9946,4.0084,4.0102,3.9997,3.9998,3.9999,0,3.9342,3.9389,3.944,3.9472,3.9498,3.955,3.9583,3.96,3.9634,3.9686,3.9722,3.9777,3.9822,3.991,3.9938,3.9989,3.9988,4.0033,3.9995,3.9989,3.9985,3.9981,3.9985,4.0039,4.004,4.0041,4.0042,0,3.9446,3.9454,3.9502,3.9554,3.9594,3.9636,3.9676,3.9702,3.9725,3.9763,3.982,3.9854,3.9923,3.9977,4.0029,4.0054,4.0051,4.0053,4.0065,4.0061,4.005,4.0054,3.9927,4.005,4.0049,4.0048,4.0048,4.0048,3.9517,3.9557,3.9599,3.9652,3.9684,3.9722,3.9763,3.9787,3.9834,3.9891,3.9898,3.9958,3.9999,4.0069,4.0095,4.0142,4.0129,4.0148,4.0152,4.0156,4.0157,4.0044,4.0152,4.0151,4.0151,4.0151,4.0151,0,3.9618,3.9645,3.9694,3.975,3.9791,3.9785,3.9829,3.9864,3.9916,3.9955,3.9998,4.0062,4.0114,4.0145,4.0197,4.0228,4.0228,4.0241,4.0237,4.0242,4.0166,4.015,4.024,4.024,4.024,4.024,4.024,4.024,3.9676,3.9744,3.9757,3.9841,3.9867,3.9925,3.995,3.9984,4.0014,4.0085,4.0128,4.0148,4.0183,4.0237,4.0284,4.0292,4.031,4.0323,4.033,4.0258,4.0248,4.0239,4.0224,4.0328,4.0328,4.0402,4.0402,4.0403]},{"header":{"parameterUnit":"m.s-1","parameterCategory":1,"la1":30.2991,"la2":30.254,"lo1":-89.0895,"lo2":-89.0444,"dy":0.0017,"dx":0.0017,"nx":28,"ny":28,"refTime":"2025-06-07T21:00:00:Z","depth":0,"parameterNumber":3,"parameterNumberName":"V-component_of_WINDS"},"data":[0,0,0,0,0,0,0,0,0,0,0,0,0,0,0,0,0,0,0,0,0,0,0,0,0,0,0,0,0,0,0,0,0,0,0,0,0,0,0,0,0,0,0,0,0,0,0,0,0,0,0,0,0,0,0,0,0,0,3.2114,3.2115,0,3.2257,3.2258,3.226,3.2279,3.2278,3.2276,3.2275,3.2419,3.2424,3.2429,0,0,0,0,0,0,0,0,0,0,0,0,0,3.1854,3.1859,3.2114,3.2115,3.2117,3.2256,3.2258,3.226,3.2279,3.2277,3.2276,3.2274,3.2418,3.2424,3.243,0,0,0,0,0,0,0,0,0,0,0,0,0,3.1979,3.1861,3.2113,3.2143,3.2148,3.2256,3.2259,3.2261,3.2279,3.2277,3.2275,3.2273,3.2416,3.2423,3.2431,3.2518,0,0,3.2454,3.2457,0,0,0,0,0,0,0,0,3.1972,3.1989,3.2137,3.2142,3.2146,3.2248,3.222,3.2347,3.228,3.2229,3.2275,3.2273,3.2364,3.2376,3.2407,3.2525,3.2531,3.2455,3.2459,3.2463,3.2465,0,0,0,0,0,0,0,3.1963,3.1983,3.217,3.2139,3.2145,3.2149,3.2164,3.2244,3.2306,3.2234,3.2235,3.2252,3.2366,3.2399,3.241,3.2534,3.2454,3.2461,3.2466,3.2469,3.2731,3.2733,0,0,0,0,0,0,3.195,3.1975,3.2166,3.2174,3.2052,3.2155,3.2173,3.2217,3.2305,3.2317,3.2254,3.2252,3.2387,3.2401,3.2415,3.2524,3.2463,3.247,3.2474,3.2728,3.2731,3.2734,0,0,0,0,0,0,3.1944,3.1966,3.216,3.2075,3.21,3.2162,3.2212,3.2221,3.2255,3.2321,3.2331,3.2277,3.2386,3.2405,3.2493,3.2529,3.2473,3.248,3.2726,3.2729,3.2732,3.2742,0,0,0,0,0,0,3.1936,3.1964,3.1999,3.2076,3.2105,3.2236,3.2214,3.2225,3.2268,3.2268,3.2345,3.2356,3.2386,3.2481,3.25,3.2539,3.2486,3.2723,3.2727,3.2731,3.2739,3.2745,3.2751,0,0,0,0,0,3.1927,3.1995,3.2001,3.2023,3.215,3.2238,3.2254,3.2288,3.2271,3.2306,3.2348,3.2353,3.2522,3.249,3.2512,3.2553,3.272,3.2726,3.2731,3.2736,3.2744,3.2751,0,0,0,0,0,0,3.192,3.2006,3.2013,3.2108,3.2166,3.2241,3.2286,3.2296,3.2359,3.2356,3.2394,3.2412,3.2498,3.2534,3.2497,3.2642,3.262,3.2629,3.2616,3.2624,3.263,3.262,3.2492,0,0,0,0,0,3.193,3.1995,3.2066,3.2144,3.2172,3.2224,3.2264,3.2285,3.2346,3.237,3.2418,3.2476,3.2542,3.2585,3.265,3.2744,3.276,3.2783,3.2789,3.2794,3.2802,3.2854,3.2865,3.2751,3.2751,3.2751,0,0,3.1951,3.2006,3.2044,3.2144,3.2191,3.2257,3.2244,3.2315,3.2364,3.238,3.2467,3.2504,3.2571,3.2663,3.2705,3.2696,3.2837,3.28,3.2804,3.281,3.286,3.2871,3.2881,3.2755,3.2754,3.2754,0,0,3.2022,3.207,3.214,3.2188,3.2259,3.2293,3.2309,3.2383,3.2409,3.2496,3.251,3.2568,3.2681,3.2729,3.2768,3.2856,3.2863,3.2876,3.2909,3.2959,3.2968,3.2976,3.3007,3.3018,3.2884,3.2884,3.2884,0,3.2039,3.214,3.2175,3.2245,3.2288,3.2306,3.2377,3.2421,3.2509,3.2538,3.2526,3.2668,3.2715,3.2817,3.2839,3.2869,3.2889,3.2868,3.2964,3.2972,3.298,3.3011,3.3022,3.2885,3.2885,3.2885,3.2884,0,3.2156,3.2226,3.2273,3.2359,3.2407,3.2477,3.2522,3.2567,3.2583,3.2618,3.2706,3.2763,3.2839,3.2865,3.2881,3.2969,3.2961,3.2956,3.2934,3.2992,3.3021,3.3033,3.2886,3.2886,3.2886,3.2885,0,0,3.2228,3.2332,3.2349,3.2388,3.2468,3.2522,3.2592,3.2667,3.2704,3.2764,3.2824,3.2919,3.2914,3.2958,3.298,3.3024,3.309,3.3014,3.3016,3.3026,3.3191,3.3194,3.3207,3.3095,3.3098,3.31,3.3185,0,3.2309,3.2436,3.2469,3.2576,3.2641,3.2659,3.272,3.2775,3.2809,3.2868,3.2905,3.2972,3.2961,3.2988,3.3032,3.3073,3.3124,3.3067,3.3151,3.3153,3.3134,3.3223,3.3227,3.3305,3.3197,3.3199,3.32,0,3.2421,3.2483,3.2597,3.2668,3.2697,3.2751,3.2822,3.2878,3.2941,3.2962,3.3011,3.3029,3.3102,3.3075,3.3176,3.3137,3.3172,3.3198,3.3201,3.3211,3.318,3.3234,3.3331,3.3342,3.3218,3.3217,3.3216,0,3.2462,3.2575,3.2658,3.269,3.2775,3.2813,3.285,3.291,3.2953,3.3015,3.3043,3.3112,3.315,3.3202,3.3238,3.3215,3.3335,3.3312,3.3355,3.3354,3.338,3.3378,3.3483,3.3402,3.3402,3.3402,3.3402,0,3.2549,3.2617,3.2677,3.2728,3.2805,3.2843,3.2918,3.2955,3.3009,3.3067,3.3086,3.3139,3.3183,3.3242,3.3271,3.3349,3.3366,3.3385,3.3392,3.3384,3.3382,3.3408,3.3404,3.3405,3.3404,3.3404,3.3403,0,3.2608,3.2651,3.2742,3.2815,3.2835,3.2889,3.2951,3.3,3.3035,3.3108,3.3127,3.3181,3.3252,3.3292,3.3381,3.34,3.3488,3.3492,3.3467,3.347,3.3511,3.3506,3.3637,3.3656,3.3562,3.3563,3.3564,0,3.2661,3.2714,3.2793,3.2834,3.2871,3.2936,3.298,3.3018,3.3063,3.3138,3.3178,3.325,3.331,3.3422,3.3468,3.3536,3.3542,3.3583,3.3553,3.3543,3.3543,3.3539,3.3545,3.3589,3.359,3.359,3.3591,0,3.275,3.2768,3.2831,3.2902,3.2954,3.3011,3.3067,3.3099,3.3146,3.3195,3.3268,3.3315,3.3406,3.3477,3.3548,3.3585,3.3596,3.36,3.3614,3.3606,3.359,3.3599,3.3482,3.3597,3.3596,3.3596,3.3596,3.3595,3.2808,3.2856,3.2919,3.2989,3.3035,3.3087,3.3138,3.3179,3.324,3.3318,3.3336,3.3413,3.3473,3.3571,3.3609,3.3669,3.3662,3.3682,3.3687,3.3691,3.3692,3.358,3.3682,3.3682,3.3682,3.3682,3.3682,0,3.2898,3.294,3.3003,3.3082,3.3136,3.3142,3.3204,3.3249,3.3317,3.3372,3.3431,3.3514,3.3583,3.3635,3.3705,3.3743,3.3749,3.376,3.3758,3.3766,3.3695,3.3676,3.3754,3.3754,3.3754,3.3754,3.3753,3.3753,3.2952,3.3034,3.306,3.3165,3.3205,3.3281,3.3316,3.3364,3.3409,3.3502,3.3559,3.3593,3.3647,3.3721,3.3784,3.3797,3.3822,3.3832,3.3846,3.3779,3.3771,3.3764,3.3746,3.3837,3.3837,3.3913,3.3913,3.3914]}]]